TimeEST,TemperatureF,Dew PointF,Humidity,Sea Level PressureIn,VisibilityMPH,Wind Direction,Wind SpeedMPH,Gust SpeedMPH,PrecipitationIn,Events,Conditions,WindDirDegrees,DateUTC
12:53 AM,60.1,59.0,96,29.96,5.0,West,3.5,-,N/A,,Overcast,280,2013-02-16 05:53:00
1:53 AM,61.0,59.0,93,29.95,5.0,West,3.5,-,N/A,,Overcast,280,2013-02-16 06:53:00
2:53 AM,61.0,59.0,93,29.93,6.0,Calm,Calm,-,0.00,,Overcast,0,2013-02-16 07:53:00
3:18 AM,60.8,59.0,94,29.92,5.0,WNW,3.5,-,N/A,,Overcast,290,2013-02-16 08:18:00
3:40 AM,60.8,59.0,94,29.91,4.0,WNW,4.6,-,N/A,,Overcast,300,2013-02-16 08:40:00
3:53 AM,61.0,59.0,93,29.92,4.0,NW,5.8,-,N/A,,Overcast,310,2013-02-16 08:53:00
4:53 AM,61.0,60.1,97,29.91,4.0,WNW,3.5,-,N/A,,Overcast,300,2013-02-16 09:53:00
5:53 AM,61.0,59.0,93,29.92,4.0,WNW,4.6,-,N/A,,Overcast,290,2013-02-16 10:53:00
6:53 AM,60.1,57.9,93,29.93,6.0,NW,4.6,-,N/A,,Mostly Cloudy,310,2013-02-16 11:53:00
7:53 AM,59.0,57.0,93,29.93,5.0,NW,3.5,-,N/A,,Clear,310,2013-02-16 12:53:00
8:53 AM,62.1,57.9,86,29.93,10.0,WNW,5.8,-,N/A,,Clear,290,2013-02-16 13:53:00
9:53 AM,64.9,57.9,78,29.94,10.0,WNW,6.9,-,N/A,,Clear,290,2013-02-16 14:53:00
10:53 AM,66.9,55.9,68,29.95,10.0,NW,8.1,-,N/A,,Partly Cloudy,320,2013-02-16 15:53:00
11:53 AM,68.0,53.1,59,29.95,10.0,West,13.8,19.6,N/A,,Clear,280,2013-02-16 16:53:00
12:53 PM,70.0,50.0,49,29.92,10.0,West,11.5,-,N/A,,Scattered Clouds,260,2013-02-16 17:53:00
1:53 PM,71.1,45.0,39,29.90,10.0,WNW,17.3,26.5,N/A,,Clear,290,2013-02-16 18:53:00
2:53 PM,70.0,39.9,33,29.90,10.0,WNW,17.3,24.2,N/A,,Clear,290,2013-02-16 19:53:00
3:53 PM,70.0,41.0,35,29.90,10.0,WNW,15.0,23.0,N/A,,Clear,290,2013-02-16 20:53:00
4:53 PM,68.0,44.1,42,29.91,10.0,WNW,16.1,23.0,N/A,,Mostly Cloudy,290,2013-02-16 21:53:00
5:53 PM,64.0,46.9,54,29.94,10.0,WNW,12.7,26.5,N/A,,Scattered Clouds,290,2013-02-16 22:53:00
6:53 PM,60.1,42.1,51,29.98,10.0,WNW,16.1,24.2,N/A,,Clear,300,2013-02-16 23:53:00
7:53 PM,57.0,39.9,53,30.02,10.0,WNW,15.0,25.3,N/A,,Clear,290,2013-02-17 00:53:00
8:53 PM,53.1,41.0,64,30.05,10.0,WNW,9.2,-,N/A,,Clear,290,2013-02-17 01:53:00
9:53 PM,52.0,37.9,59,30.07,10.0,WNW,9.2,-,N/A,,Clear,290,2013-02-17 02:53:00
10:53 PM,51.1,37.9,61,30.09,10.0,WNW,8.1,-,N/A,,Clear,300,2013-02-17 03:53:00
11:53 PM,48.0,39.9,74,30.09,10.0,WNW,8.1,-,N/A,,Clear,300,2013-02-17 04:53:00